1969 visiteurs
Prévisions de votre ville :
Vigilance : 13 départements Mise à jour le 19/07/2019 à 06:04 - Voir la carte

Paris Roissy CDG (95380) le 19/07/2019 à 08:00 Choisir station

17.8°C 87 % OSO Rafales 6 km/h
Vit. moyenne 2 kmh/h

Relevés météo quotidiens pour la station de :

UTC
S: Synop
M: Metar
Loc T°C
(°C)
Td
(°C)
HR
(%)
Vis
(km)
Néb
(octa)
Vent
(km/h)
Pression
(mb)
Précipitations
(mm)
Temps
              MOY
10 min
DIR RAF 1h MESURE VAR SUR 3h    
S 00 h 02h 20.8 12.0 57 40 7/8 2 2 1015.6 -0.8/3h 0.0/6h - 0.0/3h
S 01 h 03h 19.4 12.2 63 30 7/8 2 4 1015.3 -0.8/3h 0.0/1h
S 02 h 04h 20.0 12.5 62 35 7/8 4 7 1015.1 -0.8/3h 0.0/1h
S 03 h 05h 19.4 13.6 69 35 7/8 6 9 1014.7 -0.9/3h 0.0/3h
S 04 h 06h 18.9 14.4 75 35 7/8 4 9 1014.2 -1.1/3h 0.0/1h
S 05 h 07h 19.3 13.7 70 30 7/8 2 4 1014.6 -0.5/3h 0.0/1h
S 06 h 08h 18.3 14.8 80 30 7/8 9 19 1013.2 -1.5/3h 0.0/1h
S 07 h 09h 19.8 14.6 72 30 7/8 4 13 1014.5 +0.3/3h 0.0/1h
S 08 h 10h 20.7 15.0 70 30 7/8 6 13 1014.5 -0.1/3h 0.0/1h
S 09 h 11h 22.6 14.4 60 30 7/8 2 6 1014.4 +1.3/3h 0.0/1h
S 10 h 12h 25.0 13.2 48 30 7/8 2 9 1013.8 -0.5/3h 0.0/1h
S 11 h 13h 27.2 11.2 37 19 - 11 26 1013.4 -0.9/3h 0.0/1h -
S 12 h 14h 29.0 12.0 35 30 2/8 9 30 1012.8 -1.4/3h 0.0/3h
S 13 h 15h 29.1 12.1 35 30 5/8 13 33 1012.3 -1.4/3h 0.0/1h
S 14 h 16h 27.5 11.1 36 50 7/8 7 19 1012.2 -1.1/3h 0.0/1h
S 15 h 17h 27.5 11.5 37 35 7/8 7 26 1012.2 -0.6/3h 0.0/3h
S 16 h 18h 27.4 13.0 41 35 7/8 7 20 1012.1 -0.2/3h 0.0/1h
S 17 h 19h 28.0 12.4 38 35 7/8 6 19 1011.9 -0.3/3h 0.0/1h
S 18 h 20h 27.6 12.0 38 30 7/8 4 7 1011.8 -0.4/3h 0.0/3h
S 19 h 21h 26.3 12.4 42 35 7/8 4 19 1012.0 -0.2/3h 0.0/1h
S 20 h 22h 25.0 12.9 47 35 7/8 7 26 1012.1 +0.1/3h 0.0/1h
S 21 h 23h 23.6 12.9 51 35 7/8 20 37 1013.3 +1.3/3h 0.0/3h
S 22 h 00h 21.9 12.2 54 35 5/8 6 19 1013.5 +1.4/3h 0.0/1h
S 23 h 01h 20.9 11.5 55 35 5/8 9 17 1013.7 +1.4/3h 0.0/1h
evolution des temperatures
cumul des precipitations
vent moyen et rafales
pression atmospherique

Un tiret (-) signifie que les données ne sont pas disponibles.

Passez la souris sur les pictos temps pour avoir plus de précisions. Passez les flèches sur l'icône de la direction du vent pour voir la direction précise en degrés.

Les données de l'heure en cours sont disponibles à partir de H+15 minutes.


S signifie station Synop, plus complète qu'une station Metar (M). Il y a +1h de différence entre l'heure UTC et l'heure légale en hiver et +2h en été.

Td est la mesure du point de rosée.

HR est l'humidité relative/p>

Vis est la visibilité

Néb est la nébulosité du ciel (couverture nuageuse) exprimée en octas (de 0/8 à 8/8).

Vent moy 10 min donne le vent moyen sur les 10 minutes qui précèdent le relevé.

Vent raf 1h donne la rafale maximale mesurée dans l'heure qui précède le relevé.


Les données les plus anciennes remontent à avril 2014.

Les données présentées sur cette page proviennent des stations météo officielles. Les relevés sont effectués aux normes en vigueur (anémomètre à 10m de haut, thermomètre sous abri normalisé à 2m du sol...)

Météo 60 décline toute responsabilité en cas d'absence de données, d'erreurs, de mauvaise utilisation ou interprétation et n'est pas habilité à fournir des certificats intempéries.